Vertical_Velocity
-5 -4 -4 -3 3 -1 -2 2 5 -1 -3 2 1 -0 -1 3 1 -2 -4 0 2 -1 2 -2 -2 2 -2 -1 0 3 -1 -3 0 3 2 3 5 7 8 5 4 2 7 1
-1 -4 -4 -7 -7 -10 -6 -6 -1 -1 -2 -1 1 -0 -6 4 -0 -2 -1 -1 0 -1 2 -2 1 -1 -2 -1 1 -5 3 -5 -2 3 1 -1 1 5 8 6 5 2 6 -4
-0 -2 -3 -4 -5 -4 -3 -4 -8 -5 -4 -5 -6 -1 4 -2 -2 0 2 3 5 3 -0 -1 -1 -3 -2 -2 -2 -1 -2 -1 -3 -3 1 1 4 4 5 6 8 4 2 5
0 2 2 -2 -2 -6 -2 -9 -6 -3 -1 0 -2 -2 1 1 -5 -2 -2 -0 3 3 3 2 -0 0 -3 1 0 -4 -4 -4 -4 -3 2 -0 0 -2 8 8 5 4 7 5
-3 -3 -3 1 -0 1 1 3 -4 -6 -5 -4 -4 -3 -1 1 -2 0 0 0 2 -0 0 2 -2 -1 3 5 1 3 -4 -5 -4 -4 -1 0 -1 -1 0 2 3 2 2 2
-2 -2 -3 -4 -4 -6 -11 -8 -0 -2 -3 -3 -5 -2 1 1 1 3 2 2 2 -1 -2 -1 -1 0 0 -1 0 -1 -2 -2 -4 -4 -3 -2 -0 -4 -4 -4 1 1 -3 -2
-3 -6 -1 -3 -5 -7 -6 -6 -1 -5 -6 -2 -4 -4 -2 -1 -3 -3 -2 -3 -0 0 -0 -1 -0 -1 -1 -1 -1 -2 -1 -2 -4 -4 -5 -3 -0 -3 -0 -0 -2 -2 -3 -2
-5 -4 -2 -2 -4 -2 -1 -2 -5 -6 -5 -4 -3 -5 -3 0 2 2 -1 -1 -1 -2 0 0 -0 -3 2 0 -3 -4 -3 -2 -3 -3 -3 -5 -4 -2 -4 -4 4 -3 -2 -2
-4 -3 -4 -2 -2 -2 -2 -1 -2 -4 -6 -3 -1 -3 -4 -5 -4 0 0 -0 -1 -3 -2 -1 -2 0 -1 -1 0 -0 -1 -3 -2 -3 -3 -3 -3 -4 -3 -2 -4 -1 -2 -3
-2 -3 -2 -4 -1 1 -1 -3 -3 -1 -2 -0 -1 -2 -2 -1 -3 -4 -4 -2 -2 -0 -1 -1 1 0 0 -1 -1 -5 -5 -4 -2 -2 -2 -1 -1 -1 -0 -2 -3 -2 -2 -3
-1 -1 0 -1 -5 -2 -2 -2 -4 -4 -1 -1 -1 -2 -3 -4 -2 -2 -1 -1 -3 -2 -1 -1 -1 -0 -0 -2 -0 -0 -0 -1 -1 -0 0 -0 -3 1 -2 -1 2 -1 -2 -2
-0 -2 -3 -2 -1 -3 -3 -2 -1 -0 -0 -1 0 0 -0 -2 -2 0 -0 2 0 -3 -3 -2 0 -1 -1 1 2 1 -0 0 -0 -1 -1 -1 -2 -1 -3 -3 -1 -1 2 -0
1 -1 1 0 -2 0 0 -2 -4 -1 1 -1 0 -0 -1 0 -0 -0 1 1 -1 -1 -1 2 1 -1 1 1 1 2 4 0 1 -1 -3 1 -0 0 -1 1 -3 -1 -5 0
-4 -1 -2 2 3 -2 -2 -1 -2 -0 -0 0 -1 -1 -1 -1 -1 -1 1 2 3 2 -1 0 2 0 0 4 0 -1 0 0 1 2 4 6 -4 1 0 1 -1 -1 -2 -4
-2 -3 3 -6 -4 -3 -2 -2 -4 -1 2 1 -1 2 0 -1 1 1 -1 -2 -2 1 3 -0 -0 1 -5 2 -0 -1 -1 0 -1 -1 -0 1 2 2 3 0 2 0 -0 6
1 -1 -3 4 0 -2 -1 -1 -2 -1 -3 0 1 0 -1 1 1 1 1 -2 -1 1 -0 1 0 -1 -2 1 1 0 1 1 1 0 0 0 0 -3 -2 1 2 1 2 -1
-3 3 0 -1 -0 -1 1 -4 -3 -1 -0 -4 -2 2 -1 -0 0 1 3 1 -2 -4 3 -1 1 1 1 1 -0 1 -1 -0 0 -0 1 1 -4 3 1 -1 1 1 -1 -1
-1 -1 -1 -1 -2 1 1 2 2 1 -1 -2 -5 -2 1 -0 1 2 3 1 -1 -1 -0 -2 0 0 2 3 2 0 0 0 0 -1 -2 -1 1 2 1 -0 2 -1 -0 1
-1 -0 0 0 -2 3 1 0 2 3 1 1 0 -2 -4 -3 -1 -2 2 6 3 0 -0 0 1 0 -0 1 1 1 1 1 1 -1 -1 1 0 -1 -2 -1 -3 -3 -1 -1
-4 0 -4 -2 0 -3 0 -1 -2 1 2 2 1 2 -1 -2 1 -2 -5 -1 2 -0 -1 -1 1 -0 3 1 1 1 1 1 1 5 5 1 -4 -0 -1 0 -1 -1 -0 0
-3 -1 2 2 0 5 1 -1 -2 -3 -3 -2 -1 -0 0 2 -1 -1 -1 -2 0 2 1 1 1 1 1 1 1 1 0 0 1 0 -0 1 3 2 -0 -2 -3 -2 -2 -1
-3 -8 -7 -5 -2 -4 -1 -1 0 -1 -5 -4 -3 -2 -1 2 -4 -0 -0 4 -2 -2 -1 1 -1 -1 -1 -0 1 0 1 0 -1 0 -0 -1 0 2 1 1 -0 -1 -2 -1
1 -2 -2 -5 -2 -5 -0 -1 4 1 -2 0 0 -1 -2 -6 -3 0 -2 -1 -1 2 -1 -1 3 -0 0 0 -1 -1 -1 -0 0 0 1 1 -1 -0 1 -0 -1 -2 -2 -1
-8 -6 -3 5 -1 -5 -3 0 1 3 -1 1 1 6 -0 -0 -1 -1 -2 2 -1 -1 -0 1 1 2 2 1 -1 -1 -0 -0 0 0 0 0 0 -2 -1 -1 1 0 1 -1
-8 -4 -6 -0 -0 -5 -1 -0 0 3 -0 0 -3 4 7 5 3 1 -3 -2 -0 0 -1 0 1 1 -0 -0 1 1 1 1 1 0 -0 0 -0 -0 -1 -0 -1 -1 -2 -1
-2 -4 0 0 3 2 1 2 2 2 2 -0 2 1 -1 -0 0 3 3 3 2 1 1 1 1 1 1 1 1 1 1 1 1 1 0 -0 0 -0 -1 0 1 -0 1 0
-4 -1 -3 -4 0 -0 -2 0 1 0 1 1 -1 -4 -2 -4 1 0 1 2 2 1 3 2 1 0 1 1 0 1 1 1 1 1 1 0 0 0 1 -0 -2 -2 -2 -0
Height
5710 5701 5692 5683 5674 5661 5649 5637 5625 5611 5599 5589 5577 5567 5556 5549 5540 5534 5528 5524 5520 5516 5513 5509 5506 5502 5497 5493 5489 5484 5479 5473 5468 5467 5466 5466 5469 5472 5473 5473 5476 5478 5480 5482
5705 5696 5686 5677 5667 5656 5645 5633 5621 5608 5595 5582 5571 5559 5549 5542 5534 5528 5522 5518 5514 5511 5507 5504 5500 5495 5490 5486 5481 5475 5469 5461 5454 5449 5449 5449 5452 5456 5459 5460 5462 5464 5469 5470
5702 5692 5682 5671 5659 5648 5637 5624 5611 5600 5587 5575 5563 5553 5545 5536 5530 5524 5518 5513 5510 5506 5501 5496 5492 5488 5483 5478 5473 5466 5459 5450 5441 5438 5439 5440 5442 5443 5446 5449 5451 5453 5456 5459
5697 5688 5677 5665 5653 5641 5629 5616 5604 5591 5580 5569 5558 5548 5539 5531 5524 5519 5513 5508 5504 5500 5496 5491 5486 5481 5476 5472 5466 5459 5452 5442 5434 5430 5432 5432 5434 5437 5438 5440 5441 5443 5447 5448
5692 5683 5672 5662 5649 5637 5624 5611 5597 5585 5574 5563 5552 5543 5535 5528 5521 5516 5509 5503 5499 5494 5490 5485 5480 5476 5472 5467 5461 5454 5445 5438 5431 5427 5425 5425 5427 5428 5430 5430 5431 5433 5435 5437
5685 5676 5666 5655 5644 5631 5618 5604 5593 5580 5569 5559 5549 5539 5531 5523 5517 5511 5505 5499 5493 5488 5484 5479 5475 5471 5466 5461 5457 5449 5441 5436 5431 5426 5423 5421 5421 5420 5422 5422 5422 5421 5423 5425
5680 5670 5659 5647 5635 5623 5610 5598 5586 5574 5564 5553 5544 5535 5527 5519 5512 5506 5500 5494 5489 5485 5479 5475 5470 5465 5460 5456 5451 5446 5440 5433 5428 5424 5420 5418 5417 5415 5414 5413 5413 5413 5413 5414
5674 5664 5653 5642 5630 5617 5604 5592 5580 5568 5558 5548 5540 5531 5524 5516 5509 5503 5496 5490 5486 5481 5476 5471 5466 5461 5457 5452 5447 5442 5438 5432 5427 5423 5419 5417 5412 5409 5407 5406 5408 5405 5404 5404
5669 5658 5647 5636 5624 5611 5598 5586 5574 5564 5553 5545 5536 5528 5520 5513 5506 5500 5494 5488 5483 5478 5472 5467 5462 5458 5454 5450 5445 5440 5435 5430 5427 5421 5416 5414 5410 5407 5403 5401 5400 5398 5395 5395
5664 5653 5641 5630 5618 5606 5593 5581 5570 5559 5549 5540 5533 5525 5517 5510 5503 5497 5491 5485 5480 5475 5470 5465 5461 5456 5452 5447 5441 5435 5430 5426 5423 5419 5415 5411 5408 5405 5402 5399 5398 5391 5388 5386
5658 5648 5637 5624 5612 5600 5589 5577 5565 5555 5545 5536 5529 5522 5514 5507 5500 5494 5488 5483 5477 5472 5467 5462 5457 5453 5448 5444 5439 5435 5430 5426 5421 5418 5414 5411 5405 5402 5398 5395 5391 5386 5383 5380
5652 5641 5630 5618 5605 5593 5582 5572 5560 5550 5541 5533 5524 5517 5511 5504 5497 5491 5484 5479 5473 5468 5463 5458 5453 5449 5444 5440 5436 5432 5429 5425 5420 5415 5410 5403 5398 5394 5390 5386 5383 5381 5378 5375
5646 5635 5624 5611 5599 5588 5576 5566 5556 5546 5537 5529 5521 5513 5507 5500 5494 5487 5482 5476 5470 5464 5459 5453 5448 5444 5440 5436 5432 5427 5424 5419 5416 5412 5406 5401 5395 5390 5385 5381 5376 5372 5369 5367
5640 5628 5617 5606 5593 5582 5571 5561 5551 5542 5533 5525 5517 5509 5502 5496 5490 5485 5479 5473 5466 5460 5454 5447 5442 5438 5436 5432 5428 5423 5418 5414 5411 5407 5403 5398 5389 5384 5380 5375 5371 5366 5361 5357
5632 5621 5609 5597 5586 5576 5566 5557 5547 5538 5531 5521 5512 5504 5497 5491 5486 5480 5474 5468 5462 5455 5449 5442 5436 5432 5429 5428 5424 5419 5414 5409 5404 5400 5395 5390 5386 5379 5374 5368 5363 5359 5355 5352
5626 5614 5603 5593 5581 5569 5560 5552 5543 5534 5526 5518 5510 5501 5494 5488 5482 5476 5470 5463 5457 5450 5444 5437 5432 5427 5425 5423 5419 5415 5410 5405 5399 5393 5389 5384 5378 5372 5365 5361 5356 5351 5346 5342
5620 5608 5596 5584 5574 5564 5554 5546 5538 5529 5522 5514 5507 5499 5491 5485 5479 5472 5466 5459 5452 5446 5440 5433 5428 5423 5421 5418 5414 5410 5405 5399 5394 5388 5383 5378 5371 5367 5361 5356 5352 5346 5340 5335
5611 5600 5590 5579 5569 5559 5550 5542 5535 5526 5518 5510 5503 5496 5489 5483 5476 5469 5462 5455 5449 5442 5435 5429 5424 5419 5416 5413 5409 5404 5399 5393 5387 5381 5375 5371 5366 5361 5355 5350 5345 5338 5332 5327
5603 5593 5583 5573 5563 5555 5546 5538 5531 5523 5516 5506 5498 5491 5485 5479 5472 5464 5458 5451 5444 5437 5431 5426 5420 5416 5412 5409 5403 5398 5392 5387 5382 5376 5369 5364 5359 5354 5348 5343 5337 5332 5326 5320
5595 5585 5576 5566 5558 5547 5541 5532 5526 5518 5512 5503 5496 5488 5481 5474 5465 5458 5451 5444 5438 5433 5428 5422 5417 5412 5408 5402 5397 5391 5385 5380 5375 5371 5365 5358 5352 5347 5341 5337 5331 5324 5318 5312
5586 5578 5569 5558 5549 5542 5533 5526 5519 5511 5505 5498 5491 5484 5477 5469 5462 5454 5446 5439 5433 5428 5424 5418 5413 5407 5402 5395 5389 5384 5378 5373 5367 5361 5355 5350 5346 5341 5335 5329 5322 5316 5309 5303
5575 5566 5557 5550 5541 5533 5527 5519 5513 5505 5498 5491 5484 5478 5471 5464 5456 5448 5440 5434 5427 5422 5417 5412 5406 5400 5394 5388 5382 5376 5370 5365 5359 5353 5348 5342 5337 5331 5326 5320 5313 5307 5300 5294
5567 5557 5548 5540 5534 5526 5518 5512 5506 5499 5492 5485 5478 5471 5464 5457 5450 5442 5434 5428 5422 5417 5411 5405 5400 5392 5386 5380 5374 5368 5363 5357 5351 5345 5340 5334 5328 5323 5317 5310 5303 5297 5290 5285
5555 5547 5540 5533 5525 5518 5511 5505 5498 5492 5485 5478 5472 5465 5457 5450 5444 5436 5429 5423 5415 5409 5405 5400 5393 5387 5380 5373 5367 5361 5355 5349 5344 5338 5332 5327 5320 5314 5307 5301 5295 5288 5282 5276
5546 5538 5531 5524 5517 5510 5504 5497 5491 5485 5478 5471 5464 5458 5452 5445 5438 5430 5423 5417 5412 5407 5401 5394 5387 5380 5373 5367 5361 5355 5349 5343 5337 5331 5325 5318 5312 5305 5298 5292 5286 5279 5273 5268
5539 5530 5524 5518 5511 5504 5497 5490 5484 5478 5471 5464 5458 5451 5444 5438 5432 5426 5420 5414 5408 5402 5394 5387 5380 5374 5367 5361 5355 5349 5343 5337 5330 5323 5316 5309 5302 5296 5289 5283 5277 5271 5266 5260
5530 5523 5515 5509 5504 5498 5491 5484 5477 5471 5465 5458 5450 5444 5438 5432 5426 5420 5414 5408 5402 5395 5389 5382 5375 5368 5362 5355 5349 5342 5335 5329 5321 5314 5307 5300 5293 5287 5280 5274 5268 5263 5257 5252